Location: Lafig�re
(44.4503°N, 4.0357°E)
Time: 07:49:58
(UTC+00:00)

Cosmos 1092 Rocket - Pass Details

Date: 25 January 2021
Orbit: 954 x 994 km, 83.0° (Epoch: 08 March)

Event Time Altitude Azimuth Distance (km) Brightness Sun altitude
Rises 17:12:00 0° 157° (SSE) 3,648 7.0 -5.5°
Reaches altitude 10° 17:14:44 10° 148° (SSE) 2,699 6.2 -5.9°
Maximum altitude 17:20:08 33° 87° (E) 1,565 4.6 -6.8°
Drops below altitude 10° 17:25:31 10° 26° (NNE) 2,697 5.9 -7.8°
Sets 17:28:14 0° 17° (NNE) 3,645 6.7 -8.2°
